Location: Newark
(41.8083°N, 72.2500°W)
Time: 00:09:23
(UTC+00:00)

Vanguard 1 Rocket - Pass Details

Date: 12 December 2021
Orbit: 651 x 4224 km, 34.3° (Epoch: 15 January)

Event Time Altitude Azimuth Distance (km) Brightness Sun altitude
Exits shadow 08:36:17 57° 207° (SSW) 2,576 9.3 -38.4°
Maximum altitude 08:37:34 59° 188° (S) 2,659 9.5 -38.2°
Drops below altitude 10° 08:56:58 10° 116° (ESE) 6,782 12.5 -34.5°
Sets 09:03:14 0° 114° (ESE) 8,158 13.2 -33.4°
